FENGYUN 1C DEB

Satellite information

Favourite Embed

Satellite Type and Status

DEBRISIN ORBIT

Key statistics

Satellite FENGYUN 1C DEB at a glance.

Uptime

9554

Days in orbit

Revolutions

≈ 14.3

Per day

Orbit

SSO

Sun Synchronous Orbit

Inclination

98.8

Latest

Satellite identification and parameters

Extended collection of information and parameters for FENGYUN 1C DEB.

Object identification

Identified? True

Debris? True

Object name: FENGYUN 1C DEB

International designator: 1999-025KT

Object number (NORAD): 29969

Object ID (CCSDS): 29969

Country: PEOPLES REPUBLIC OF CHINA (PRC)

Current information (Y/N): Y

RCS size: SMALL

Orbital parameters

Period: 100.592 minutes

Inclination: 98.7771 deg

SMA: 7164.791 km

Apoapsis: 820.056 km

Periapsis: 753.257 km

RAAN: 269.2341 deg

Eccentricy: 0.0046616

Argument of periapsis: 156.1401 deg

Mean anomaly: 327.9316 deg

Mean motion: 14.3152003 rev/day

Mean motion (dot): 0.00003258 rev/day2

B* drag term: 0.0012274 1/REarth

Two-line elements (TLE)

Creation date: July 5, 2025, 10:56 p.m.

Reference frame: TEME

Reference center: EARTH

Epoch: July 5, 2025, 6:26 p.m. UTC

TLE line 0: 0 FENGYUN 1C DEB

TLE line 1: 1 29969U 99025KT 25186.76805809 .00003258 00000-0 12274-2 0 9991

TLE line 2: 2 29969 98.7771 269.2341 0046616 156.1401 327.9316 14.31520030953810

Live tracking on map

Real-time ground track for satellite FENGYUN 1C DEB.

In-orbit conjunctions

A list of the most updated potential collisions computed for object FENGYUN 1C DEB.

Target Orbit TCA Probability of collision Miss distance Type
COSMOS 1867 COOLANT LEO 2025-05-18 19:00:30 0.0003558516 108.0 (m) DEBRIS
SL-3 R/B LEO 2025-05-04 23:28:09 0.001024491 69.0 (m) ROCKET BODY
CZ-6A DEB LEO 2025-02-14 16:20:54 0.0001256106 772.0 (m) DEBRIS
CZ-6A DEB LEO 2024-12-29 10:07:57 0.000268873 927.0 (m) DEBRIS
COSMOS 970 DEB LEO 2024-11-14 14:17:02 0.0004944383 614.0 (m) DEBRIS

Associated space launch

Chinese polar orbiting meteorological satellite

FENGYUN 1C DEB was lifted into orbit during the mission ‘Long March 4B | Feng Yun 1C’, on board a Long March 4B space rocket.

The launch took place on May 10, 1999, 1:33 a.m. from Launch Complex 7.

For more information about the launch, click the button.

Launch to space Long March 4B | Feng Yun 1C
Long March 4B | Feng Yun 1C

Agency: N/A

Status: Launch Successful

Launch date: May 10, 1999, 1:33 a.m. UTC

Rocket: Long March 4B

Launch pad: Launch Complex 7

Location: Taiyuan Satellite Launch Center, People's Republic of China

...

Latest news about this satellite

There are no fresh news available about this satellite. Check back as we update our databases every day.


Newsletter sign-up

Weekly statistics, charts and insights to help you stay on top of the space industry.